Hourly Data Report for May 04, 2012

All times are specified in Local Standard Time (LST). Add 1 hour to adjust for Daylight Saving Time where and when it is observed.

ST. JOHN'S INTL A
NEWFOUNDLAND

47°37'07.000" N
52°45'09.000" W
140.50 m
8403505
71801
YYT

Download Data

Hourly Data (May 2012)
Hourly Data Report for May 4, 2012
Temp Definition
°C
Dew Point Temp Definition
°C
Rel Hum Definition
%
Wind Dir Definition
10's deg

Wind Spd Definition
km/h
Visibility Definition
km
Stn Press Definition
kPa
Hmdx Definition


Wind Chill Definition


Weather Definition


TIME
00:30 Legend Double Dagger 1.1 1.1 100 7 31 10.0 99.90     Rain Showers
01:30 Legend Double Dagger 1.1 1.1 100 4 28 2.0 99.81     Rain Showers,Fog
02:30 Legend Double Dagger 1.3 1.3 100 3 34 0.6 99.75     Rain Showers,Fog
03:30 Legend Double Dagger 1.8 1.8 100 4 40 8.1 99.72     Rain Showers,Fog
04:30 Legend Double Dagger 2.0 2.0 100 5 35 10.0 99.76     Rain Showers
05:30 Legend Double Dagger 2.3 2.3 100 6 37 10.0 99.81     Rain Showers
06:30 Legend Double Dagger 2.8 2.5 98 7 40 10.0 99.86     Rain Showers
07:30 Legend Double Dagger 3.1 2.4 95 5 33 10.0 99.86     LegendNANA
08:30 Legend Double Dagger 2.1 1.5 96 4 27 10.0 99.90     Cloudy
09:30 Legend Double Dagger 2.1 1.8 98 3 29 2.4 99.88     Fog
10:30 Legend Double Dagger 2.1 2.1 100 3 31 0.2 99.84     Drizzle,Fog
11:30 Legend Double Dagger 2.6 2.6 100 3 30 0.2 99.80     Drizzle,Fog
12:30 Legend Double Dagger 2.7 2.7 100 3 27 0.2 99.75     Drizzle,Fog
13:30 Legend Double Dagger 2.8 2.8 100 4 27 0.2 99.69     Drizzle,Fog
14:30 Legend Double Dagger 3.3 3.3 100 5 29 0.2 99.68     Drizzle,Fog
15:30 Legend Double Dagger 2.7 2.7 100 5 25 0.2 99.68     Drizzle,Fog
16:30 Legend Double Dagger 2.7 2.7 100 4 24 0.2 99.67     Drizzle,Fog
17:30 Legend Double Dagger 2.6 2.7 101 5 22 0.2 99.67     Drizzle,Fog
18:30 Legend Double Dagger 2.3 2.4 101 3 20 0.2 99.73     Drizzle,Fog
19:30 Legend Double Dagger 2.2 2.3 101 3 23 0.2 99.74     Drizzle,Fog
20:30 Legend Double Dagger 2.2 2.3 101 3 27 0.2 99.74     Drizzle,Fog
21:30 Legend Double Dagger 2.0 2.1 101 3 26 0.2 99.75     Drizzle,Fog
22:30 Legend Double Dagger 2.2 2.3 101 4 23 0.2 99.73     Drizzle,Fog
23:30 Legend Double Dagger 1.9 2.0 101 4 22 0.2 99.72     Drizzle,Fog

Notes on Data Quality.

Legend

  • E = Estimated
  • M = Missing
  • NA = Not Available
  • ‡ = Partner data that is not subject to review by the National Climate Archives
Date modified: